7 * 24
多渠道服务支持
STARLINK-33889是美国SpaceX公司于2025年5月4日发射的星链(Starlink)系列卫星,隶属于星链全球卫星互联网星座项目。星链项目通过部署近地轨道卫星网络,为全球偏远地区、灾害现场以及海陆空交通工具提供高速互联网接入服务,弥补地面通信覆盖短板。该卫星进入预定轨道后,将与其他星链卫星协同工作,进一步扩容星座网络容量,提升全球范围内卫星互联网服务的稳定性与覆盖质量,是SpaceX推进星链星座组网建设的重要组成部分。
美国
(US)
| 数据来源 | 国际轨道数据 |
| 星历时间: | 2026-06-14T02:53:08+0800 9小时前 查看轨道信息 |
| 半长轴: | 6861.173km |
| 偏心率: | 0.0002295 |
| 轨道倾角: | 43.001° |
| 近地点辐角 | 265.805° |
| 升交点赤经 | 349.651° |
| 平近点角 | 94.254° |
| 近地点: | 481.461km |
| 远地点: | 484.611km |
| 周期: | 94.266分钟 |
| 每日圈数: | 15.275844 |